Location: Skymont Scout Reservation
(35.4344°N, 85.8742°W)
Time: 10:58:56
(UTC-05:00)

ISS - All Passes

Search period start: 20 September 2014 00:00
Search period end: 30 September 2014 00:00
Orbit: 413 x 417 km, 51.6° (Epoch: 20 September)

Date Brightness Start Highest point End Pass type
(mag) Time Alt. Az. Time Alt. Az. Time Alt. Az.
20 Sep - 02:12:02 10° SW 02:15:22 89° SE 02:18:42 10° NE night (unlit)
20 Sep - 03:50:49 10° NW 03:52:29 13° NNW 03:54:09 10° N visible
20 Sep - 08:43:32 10° NNW 08:46:27 27° NE 08:49:21 10° E daylight
20 Sep - 10:20:18 10° WNW 10:23:05 25° SW 10:25:51 10° S daylight
21 Sep - 01:23:24 10° SSW 01:26:34 43° SE 01:29:45 10° ENE night (unlit)
21 Sep - 03:00:56 10° W 03:03:25 19° NNW 03:05:54 10° NNE visible
21 Sep - 07:55:05 10° NNW 07:57:26 18° NNE 07:59:48 10° ENE daylight
21 Sep - 09:31:07 10° WNW 09:34:20 49° SW 09:37:32 10° SSE daylight
22 Sep - 00:35:08 10° S 00:37:48 22° SE 00:40:28 10° ENE night (unlit)
22 Sep - 02:11:24 10° W 02:14:23 30° NW 02:17:22 10° NNE night (unlit)
22 Sep - 07:06:51 10° N 07:08:19 12° NNE 07:09:47 10° NE daylight
22 Sep - 08:42:09 10° NW 08:45:29 81° NE 08:48:47 10° SE daylight
22 Sep - 23:47:45 10° SSE 23:49:03 12° SE 23:50:22 10° ESE night (unlit)
23 Sep - 01:22:08 10° WSW 01:25:23 53° NW 01:28:40 10° NE night (unlit)
23 Sep - 07:53:20 10° NW 07:56:31 42° NE 07:59:41 10° ESE daylight
23 Sep - 09:30:56 10° W 09:32:57 15° SW 09:34:57 10° SSW daylight
24 Sep - 00:33:07 10° SW 00:36:26 77° SE 00:39:45 10° NE night (unlit)
24 Sep - 02:11:37 10° WNW 02:13:29 14° NNW 02:15:22 10° N night (unlit)
24 Sep - 07:04:38 10° NNW 07:07:27 25° NNE 07:10:15 10° E daylight
24 Sep - 08:41:13 10° WNW 08:44:08 28° SW 08:47:02 10° SSE daylight
24 Sep - 23:44:24 10° SSW 23:47:30 37° SE 23:50:37 10° ENE night (unlit)
25 Sep - 01:21:41 10° W 01:24:17 21° NNW 01:26:54 10° NNE night (unlit)
25 Sep - 06:16:04 10° NNW 06:18:16 16° NNE 06:20:28 10° ENE daylight
25 Sep - 07:51:57 10° NW 07:55:13 58° SW 07:58:28 10° SE daylight
25 Sep - 22:56:08 10° S 22:58:36 19° SE 23:01:05 10° E night (unlit)
26 Sep - 00:32:04 10° WSW 00:35:07 33° NW 00:38:12 10° NNE night (unlit)
26 Sep - 05:27:49 10° N 05:28:59 11° NNE 05:30:09 10° NE visible
26 Sep - 07:02:53 10° NW 07:06:12 70° NE 07:09:30 10° SE daylight
26 Sep - 22:09:23 10° SE 22:09:44 10° SE 22:10:04 10° ESE night (unlit)
26 Sep - 23:42:42 10° WSW 23:46:00 62° NW 23:49:18 10° NE night (unlit)
27 Sep - 01:22:23 10° NW 01:23:15 11° NNW 01:24:08 10° N night (unlit)
27 Sep - 06:13:57 10° NNW 06:17:05 37° NE 06:20:11 10° ESE daylight
27 Sep - 07:51:15 10° W 07:53:33 18° SW 07:55:50 10° S daylight
27 Sep - 22:53:37 10° SW 22:56:54 65° SE 23:00:12 10° NE night (unlit)
28 Sep - 00:31:49 10° WNW 00:33:53 15° NNW 00:35:58 10° N night (unlit)
28 Sep - 05:25:09 10° NNW 05:27:51 22° NNE 05:30:32 10° E visible
28 Sep - 07:01:32 10° WNW 07:04:34 33° SW 07:07:35 10° SSE daylight
28 Sep - 22:04:51 10° SSW 22:07:51 32° SE 22:10:51 10° ENE night (unlit)
28 Sep - 23:41:49 10° W 23:44:33 23° NNW 23:47:18 10° NNE night (unlit)
29 Sep - 04:36:29 10° N 04:38:30 15° NNE 04:40:30 10° ENE visible
29 Sep - 06:12:11 10° NW 06:15:30 69° SW 06:18:47 10° SE visible
29 Sep - 21:16:37 10° S 21:18:49 17° SE 21:21:02 10° E night (unlit)
29 Sep - 22:52:08 10° WSW 22:55:16 38° NW 22:58:25 10° NNE night (unlit)
